Stations météo

réclame
Mon MeteoGroup
Lille, France (7015): Température de l'air & dewpoint: 14.11.2017 12:00:00 - 20.11.2017 12:00:00 (CET)Lille, France (7015): Température de l'air 5cm: 14.11.2017 12:00:00 - 20.11.2017 12:00:00 (CET)Lille, France (7015): Température de l'air -20cm & Température de l'air -100cm: 14.11.2017 12:00:00 - 20.11.2017 12:00:00 (CET)Lille, France (7015): Vitesse du vent & gusts: 14.11.2017 12:00:00 - 20.11.2017 12:00:00 (CET)Lille, France (7015): Direction du vent: 14.11.2017 12:00:00 - 20.11.2017 12:00:00 (CET)Lille, France (7015): reduced air pressure: 14.11.2017 12:00:00 - 20.11.2017 12:00:00 (CET)Lille, France (7015): visibility: 14.11.2017 12:00:00 - 20.11.2017 12:00:00 (CET)Lille, France (7015): Ensoleillement: 14.11.2017 12:00:00 - 20.11.2017 12:00:00 (CET)Lille, France (7015): Quantités de précipitations: 14.11.2017 12:00:00 - 20.11.2017 12:00:00 (CET)
Date & Time tt [°C] td [°C] tt 5cm [°C] tt -20cm [°C] tt -100cm [°C] ff [km/h] ff [knt] fx [km/h] fx [knt] dd ppp [hPa] vv [km] sd [min] rr [mm]
20.11.2017 12:00:00 7,2 6,3 6,3 6,9 11,6 22 12 35 19 SSW 1018,2 3,3 0 0,2
20.11.2017 11:00:00 6,4 5,7 5,3 6,8 11,6 21 11 34 18 SSW 1018,6 4,2 0 1,4
20.11.2017 10:00:00 5,5 4,1 4,6 6,7 11,6 18 10 28 15 S 1019,2 7 0 0,0
20.11.2017 09:00:00 4,7 3,4 4,1 6,6 11,6 16 9 23 12 S 1019,9 10 0 0,0
20.11.2017 08:00:00 4,1 2,3 3,5 6,6 11,6 11 6 17 9 S 1020,6 10 0 0,0
20.11.2017 07:00:00 3,5 1,9 3,1 6,5 11,6 10 6 18 10 S 1021,3 17 0 0,0
20.11.2017 06:00:00 3,2 1,2 2,2 6,5 11,6 11 6 17 9 S 1021,4 10 0 0,0
20.11.2017 05:00:00 2,5 0,7 1,7 6,6 11,7 11 6 15 8 S 1021,8 10 0 0,0
20.11.2017 04:00:00 1,8 0,8 0,4 6,6 11,7 9 5 14 7 S 1022,3 19 0 0,0
20.11.2017 03:00:00 1,1 0,1 0,1 6,7 11,7 5 3 10 5 S 1023,0 10 0 0,0
20.11.2017 02:00:00 1,3 0,4 -1,3 6,8 11,7 4 2 6 3 SSE 1023,4 10 0 0,0
20.11.2017 01:00:00 1,3 -0,5 -1,2 6,9 11,7 2 1 5 3 S 1024,2 10 0 0,0
20.11.2017 00:00:00 2,5 0,6 1,6 7,0 11,7 2 1 5 3 - 1024,4 10 0 0,0
19.11.2017 23:00:00 3,0 0,9 0,2 7,1 11,7 0 0 4 2 N 1024,9 10 0 0,0
19.11.2017 22:00:00 2,1 0,3 -0,2 7,2 11,7 0 0 7 4 N 1024,7 10 0 0,0
19.11.2017 21:00:00 2,9 0,8 0,9 7,4 11,7 4 2 12 6 S 1024,4 10 0 0,0
19.11.2017 20:00:00 2,6 0,7 -0,3 7,6 11,7 11 6 11 6 SW 1024,2 10 0 0,0
19.11.2017 19:00:00 2,8 0,7 -0,2 7,7 11,7 8 5 15 8 W 1024,2 16 0 0,0
19.11.2017 18:00:00 4,0 1,2 1,6 7,9 11,7 11 6 19 11 W 1023,8 10 0 0,0
19.11.2017 17:00:00 5,8 1,9 4,4 8,0 11,7 12 7 27 15 W 1023,4 47 21 0,0
19.11.2017 16:00:00 7,7 3,0 7,7 7,9 11,7 15 8 29 15 W 1023,1 30 40 0,0
19.11.2017 15:00:00 8,3 2,3 9,2 7,7 11,7 16 9 26 14 NW 1023,1 20 49 0,0
19.11.2017 14:00:00 7,8 1,8 8,2 7,5 11,7 15 8 29 16 NW 1023,0 10 31 0,0
19.11.2017 13:00:00 8,2 3,2 9,7 7,3 11,8 16 9 28 15 W 1022,9 10 60 0,0
19.11.2017 12:00:00 7,4 2,9 9,3 7,2 11,8 16 9 24 13 W 1022,8 10 60 0,0
19.11.2017 11:00:00 6,1 2,7 7,0 7,2 11,8 16 9 24 13 W 1022,7 36 60 0,0
19.11.2017 10:00:00 4,4 3,1 1,8 7,2 11,8 11 6 15 8 W 1022,1 10 60 0,0
19.11.2017 09:00:00 2,1 1,4 -0,4 7,5 11,8 13 7 15 8 W 1021,7 10 15 0,0
19.11.2017 08:00:00 1,8 0,8 -0,3 7,7 11,8 13 7 18 10 W 1021,0 10 0 0,0
19.11.2017 07:00:00 3,0 2,1 0,1 7,8 11,8 15 8 17 9 W 1020,5 10 0 0,0
19.11.2017 06:00:00 3,3 2,4 1,0 8,0 11,8 9 5 15 8 WNW 1020,1 13 0 0,0
19.11.2017 05:00:00 3,9 3,0 1,8 8,2 11,8 13 7 16 9 W 1019,8 10 0 0,0
19.11.2017 04:00:00 4,8 3,5 3,0 8,3 11,8 11 6 16 8 W 1019,4 10 0 0,0
19.11.2017 03:00:00 6,3 5,6 5,4 8,4 11,8 13 7 17 9 W 1019,3 11 0 0,0
19.11.2017 02:00:00 6,2 5,5 5,5 8,4 11,8 11 6 13 7 WSW 1019,0 10 0 0,0
19.11.2017 01:00:00 6,2 5,2 5,1 8,5 11,8 11 6 15 8 W 1019,1 10 0 0,0
19.11.2017 00:00:00 6,9 5,8 6,5 8,5 11,8 11 6 16 9 W 1018,9 10 0 0,0
18.11.2017 23:00:00 7,2 6,1 6,9 8,5 11,8 11 6 19 10 W 1018,8 10 0 0,0
18.11.2017 22:00:00 7,4 6,7 7,2 8,5 11,8 13 7 19 10 WSW 1019,0 8 0 0,3
18.11.2017 21:00:00 7,5 6,8 7,2 8,5 11,8 10 6 18 10 WNW 1019,3 5 0 0,6
18.11.2017 20:00:00 7,5 6,8 7,4 8,4 11,8 15 8 26 14 NNW 1019,5 6 0 1,0
18.11.2017 19:00:00 8,4 8,0 8,0 8,3 11,8 5 3 17 9 SW 1019,6 1,6 0 0,4
18.11.2017 18:00:00 8,1 7,7 7,8 8,2 11,9 9 5 24 13 WNW 1020,2 3,3 0 2,6
18.11.2017 17:00:00 8,0 7,4 7,7 8,2 11,9 13 7 22 12 SW 1020,4 3,3 0 1,2
18.11.2017 16:00:00 8,5 6,6 8,0 8,0 11,8 16 9 43 23 WSW 1021,1 9 0 0,0
18.11.2017 15:00:00 9,9 4,7 10,0 7,8 11,9 26 14 39 21 WSW 1021,5 57 2 0,0
18.11.2017 14:00:00 9,9 3,6 10,7 7,6 11,9 18 10 35 19 WSW 1022,1 10 46 0,0
18.11.2017 13:00:00 9,6 3,6 9,7 7,4 11,8 26 14 37 20 WSW 1023,0 10 52 0,0
18.11.2017 12:00:00 8,4 2,8 8,6 7,2 11,8 18 10 32 17 WSW 1023,7 10 60 0,0
18.11.2017 11:00:00 6,8 2,1 6,5 7,1 11,9 14 8 21 11 WSW 1024,2 18 49 0,0
18.11.2017 10:00:00 4,5 2,0 3,6 7,0 11,9 9 5 16 8 SW 1024,4 10 5 0,0
18.11.2017 09:00:00 3,8 1,3 1,9 7,0 11,9 12 6 16 9 WSW 1024,7 20 0 0,0
18.11.2017 08:00:00 2,5 0,2 0,6 6,9 11,9 4 2 9 5 SW 1024,5 10 0 0,0
18.11.2017 07:00:00 1,3 0,3 0,0 7,0 11,9 5 3 9 5 SW 1024,7 10 0 0,0
18.11.2017 06:00:00 0,8 0,2 -2,5 7,1 11,9 0 0 4 2 N 1025,0 8 0 0,0
18.11.2017 05:00:00 0,2 -0,4 -4,1 7,2 11,9 4 2 4 2 SW 1025,3 8 0 0,0
18.11.2017 04:00:00 0,5 -0,1 -4,7 7,4 11,9 2 1 8 5 SSW 1025,7 0,7 0 0,0
18.11.2017 03:00:00 0,3 -0,4 -4,3 7,6 11,9 8 4 11 6 WSW 1026,3 3,9 0 0,0
18.11.2017 02:00:00 1,4 0,8 -2,8 7,8 11,9 8 4 10 6 WSW 1026,6 4,6 0 0,0
18.11.2017 01:00:00 0,9 -0,1 -2,0 8,0 11,9 10 5 14 7 W 1027,1 3,3 0 0,0
18.11.2017 00:00:00 2,3 1,4 -2,4 8,2 11,9 9 5 11 6 WSW 1027,1 6 0 0,0
17.11.2017 23:00:00 2,3 1,1 -2,0 8,5 11,9 4 2 8 4 W 1027,6 9 0 0,0
17.11.2017 22:00:00 3,1 1,8 -0,9 8,7 11,9 4 2 7 4 - 1027,6 10 0 0,0
17.11.2017 21:00:00 3,7 1,6 -0,1 8,9 11,9 4 2 5 3 - 1027,4 10 0 0,0
17.11.2017 20:00:00 4,8 2,2 0,2 9,1 11,9 0 0 8 5 N 1027,8 17 0 0,0
17.11.2017 19:00:00 6,3 2,0 2,0 9,3 11,9 5 3 14 8 NW 1027,9 10 0 0,0
17.11.2017 18:00:00 7,6 2,1 4,5 9,5 11,9 9 5 14 7 NNW 1027,9 10 0 0,0
17.11.2017 17:00:00 8,4 0,6 5,4 9,6 11,9 7 4 16 9 NW 1027,8 52 19 0,0
17.11.2017 16:00:00 10,3 0,9 12,9 9,6 11,9 8 4 16 9 NNW 1027,8 10 60 0,0
17.11.2017 15:00:00 9,8 0,7 10,4 9,6 11,9 11 6 20 11 N 1028,0 10 34 0,0
17.11.2017 14:00:00 11,2 1,7 9,7 9,4 11,9 11 6 23 13 NNE 1028,1 10 28 0,0
17.11.2017 13:00:00 11,1 2,1 13,9 9,2 11,9 8 5 18 10 NE 1028,3 19 60 0,0
17.11.2017 12:00:00 10,5 1,8 10,5 9,2 11,9 8 4 10 6 E 1028,6 10 60 0,0
17.11.2017 11:00:00 9,4 4,0 8,5 9,2 11,9 5 3 11 6 NE 1028,9 10 60 0,0
17.11.2017 10:00:00 7,8 4,9 5,9 9,2 11,9 5 3 10 5 NNE 1028,8 10 34 0,0
17.11.2017 09:00:00 6,4 5,0 3,5 9,4 11,9 5 3 12 7 - 1028,8 10 7 0,0
17.11.2017 08:00:00 6,6 4,9 4,0 9,6 11,9 8 4 12 6 N 1028,4 10 0 0,0
17.11.2017 07:00:00 7,0 5,6 4,8 9,7 11,9 4 2 10 5 N 1027,7 10 0 0,0
17.11.2017 06:00:00 7,3 5,9 4,4 9,8 11,9 7 4 11 6 N 1027,5 14 0 0,0
17.11.2017 05:00:00 8,2 6,8 6,5 9,9 11,9 7 4 13 7 N 1027,0 15 0 0,0
17.11.2017 04:00:00 8,7 7,6 8,2 9,9 11,9 9 5 12 7 NNW 1026,9 10 0 0,0
17.11.2017 03:00:00 8,8 7,9 8,5 9,9 11,9 9 5 15 8 NNW 1026,7 10 0 0,0
17.11.2017 02:00:00 9,0 8,2 8,8 9,9 11,9 8 5 26 14 N 1026,3 11 0 0,0
17.11.2017 01:00:00 9,7 9,2 9,0 9,9 11,9 15 8 22 12 N 1025,9 3,6 0 0,0
17.11.2017 00:00:00 9,1 8,6 6,9 9,9 11,9 8 4 12 7 WNW 1025,7 3,2 0 0,0
16.11.2017 23:00:00 8,6 8,0 5,9 10,0 11,9 8 4 11 6 W 1025,5 4,1 0 0,0
16.11.2017 22:00:00 9,2 8,4 8,1 10,1 11,9 9 5 13 7 SW 1025,3 4,7 0 0,0
16.11.2017 21:00:00 9,7 9,1 9,3 10,1 11,9 8 4 12 7 SW 1024,9 4,5 0 0,0
16.11.2017 20:00:00 10,0 9,2 9,7 10,1 11,9 8 4 10 6 S 1024,8 5 0 0,0
16.11.2017 19:00:00 10,1 9,3 9,8 10,1 11,9 7 4 12 7 SW 1024,5 4,2 0 0,0
16.11.2017 18:00:00 10,0 9,2 9,8 10,1 11,9 9 5 17 9 SW 1024,0 6 0 0,0
16.11.2017 17:00:00 10,1 9,5 9,9 10,1 11,9 9 5 15 8 SW 1023,8 4,5 0 0,0
16.11.2017 16:00:00 10,3 9,4 10,1 10,0 11,9 10 5 19 10 SW 1023,7 2,6 0 0,0
16.11.2017 15:00:00 10,3 8,9 9,8 9,9 11,9 12 7 18 10 SW 1023,6 8 0 0,0
16.11.2017 14:00:00 9,7 8,5 9,5 9,8 11,9 12 6 21 11 SSW 1023,6 6 0 0,0
16.11.2017 13:00:00 9,4 8,6 9,1 9,8 11,9 16 9 24 13 SSW 1023,9 4,3 0 0,0
16.11.2017 12:00:00 8,9 7,8 8,8 9,6 11,9 13 7 21 11 S 1024,2 3,9 0 0,0
16.11.2017 11:00:00 8,7 7,3 8,7 9,6 11,9 13 7 21 12 S 1024,4 6 0 0,0
16.11.2017 10:00:00 8,5 7,1 8,1 9,5 11,9 13 7 21 12 S 1024,0 7 0 0,0
16.11.2017 09:00:00 8,1 7,0 7,9 9,5 11,9 13 7 19 11 S 1023,8 6 0 0,0
16.11.2017 08:00:00 8,0 6,9 7,8 9,6 11,9 13 7 19 11 S 1023,3 6 0 0,0
16.11.2017 07:00:00 8,0 7,1 7,8 9,6 11,9 15 8 22 12 S 1023,1 4,0 0 0,0
16.11.2017 06:00:00 8,1 7,2 7,9 9,6 11,9 13 7 19 10 S 1023,2 6 0 0,0
16.11.2017 05:00:00 8,2 7,4 7,9 9,7 11,9 13 7 20 11 S 1023,5 5 0 0,0
16.11.2017 04:00:00 8,3 7,5 8,1 9,7 11,9 13 7 21 11 S 1023,8 5 0 0,0
16.11.2017 03:00:00 8,2 7,6 8,1 9,8 11,9 9 5 18 10 S 1024,2 5 0 0,0
16.11.2017 02:00:00 8,2 7,6 8,2 9,8 11,9 10 6 17 9 SSE 1024,3 2,9 0 0,0
16.11.2017 01:00:00 8,4 7,8 8,3 9,8 11,9 9 5 15 8 SSE 1024,4 5 0 0,0
16.11.2017 00:00:00 8,5 7,9 8,5 9,9 11,9 9 5 16 9 SSE 1024,9 5 0 0,0
15.11.2017 23:00:00 8,6 8,3 8,6 9,9 11,9 10 5 17 9 SSE 1024,9 2,1 0 0,0
15.11.2017 22:00:00 8,6 8,3 8,6 9,9 11,9 13 7 21 12 SSE 1025,0 2,1 0 0,0
15.11.2017 21:00:00 8,8 8,5 8,7 10,0 11,9 11 6 20 11 S 1025,3 1,3 0 0,0
15.11.2017 20:00:00 9,1 8,6 8,9 10,0 11,9 13 7 19 10 SSE 1025,1 2,8 0 0,0
15.11.2017 19:00:00 9,3 8,7 9,0 10,0 12,0 11 6 16 9 SSE 1025,2 3,8 0 0,0
15.11.2017 18:00:00 9,7 8,9 9,5 10,1 12,0 9 5 16 9 SSE 1025,1 4,5 0 0,0
15.11.2017 17:00:00 10,2 9,3 10,0 10,1 12,0 9 5 14 8 SSE 1025,3 4,6 0 0,0
15.11.2017 16:00:00 10,4 9,2 10,3 10,0 12,0 9 5 17 9 SE 1025,6 4,7 0 0,0
15.11.2017 15:00:00 11,0 9,1 11,1 9,9 12,0 8 4 15 8 S 1025,2 10 0 0,0
15.11.2017 14:00:00 11,2 9,5 11,2 9,8 12,0 8 4 16 9 S 1025,2 9 0 0,0
15.11.2017 13:00:00 10,8 9,4 10,9 9,6 12,0 9 5 14 8 S 1025,7 8 0 0,0
15.11.2017 12:00:00 10,1 9,0 10,3 9,4 12,0 8 4 15 8 S 1026,1 7 0 0,0
15.11.2017 11:00:00 9,8 8,9 10,3 9,2 12,0 9 5 16 9 S 1026,2 6 0 0,0
15.11.2017 10:00:00 9,3 8,7 8,7 9,1 12,0 9 5 15 8 S 1026,0 5 0 0,0
15.11.2017 09:00:00 8,6 8,2 8,3 9,1 12,0 9 5 14 8 S 1026,1 5 0 0,0
15.11.2017 08:00:00 8,4 8,0 8,2 9,1 12,0 8 4 14 7 S 1025,7 5 0 0,0
15.11.2017 07:00:00 8,4 8,1 8,2 9,1 12,0 9 5 16 8 S 1025,3 5 0 0,0
15.11.2017 06:00:00 8,3 8,0 8,1 9,0 12,0 11 6 18 10 S 1025,0 2,8 0 0,2
15.11.2017 05:00:00 8,3 8,0 8,2 9,0 12,0 11 6 18 10 S 1025,3 3,6 0 0,0
15.11.2017 04:00:00 8,4 8,0 8,2 9,0 12,0 11 6 22 12 S 1025,5 3,7 0 0,2
15.11.2017 03:00:00 8,5 7,9 8,3 9,0 12,0 13 7 18 10 S 1025,7 5 0 0,0
15.11.2017 02:00:00 8,6 7,7 8,4 8,9 12,1 9 5 17 9 S 1025,6 7 0 0,0
15.11.2017 01:00:00 8,6 7,5 8,4 8,9 12,1 10 6 16 9 S 1025,7 7 0 0,0
15.11.2017 00:00:00 8,5 7,4 8,2 8,9 12,1 11 6 17 9 S 1025,6 9 0 0,0
14.11.2017 23:00:00 8,4 7,5 8,1 8,9 12,1 10 6 18 10 S 1025,6 8 0 0,0
14.11.2017 22:00:00 8,5 7,4 8,2 8,8 12,1 12 6 19 11 SSW 1025,8 10 0 0,0
14.11.2017 21:00:00 8,5 7,6 8,2 8,8 12,1 11 6 19 10 S 1025,8 10 0 0,0
14.11.2017 20:00:00 8,5 7,6 8,1 8,8 12,1 13 7 23 12 S 1025,6 12 0 0,0
14.11.2017 19:00:00 8,9 7,2 8,2 8,8 12,2 15 8 21 11 SSW 1025,3 10 0 0,0
14.11.2017 18:00:00 8,9 6,3 8,6 8,8 12,2 11 6 21 11 S 1025,2 10 0 0,0
14.11.2017 17:00:00 9,2 5,9 9,1 8,7 12,1 13 7 21 12 S 1025,0 10 0 0,0
14.11.2017 16:00:00 9,6 5,6 9,7 8,6 12,1 16 9 29 16 SSW 1025,0 10 0 0,0
14.11.2017 15:00:00 10,2 5,6 10,5 8,4 12,2 18 10 32 17 SSW 1024,8 10 5 0,0
14.11.2017 14:00:00 10,5 5,0 10,4 8,1 12,2 22 12 34 18 SW 1025,1 10 7 0,0
14.11.2017 13:00:00 9,7 4,7 9,2 7,8 12,2 16 9 29 16 SSW 1025,5 10 1 0,0
14.11.2017 12:00:00 8,4 4,8 8,7 7,6 12,2 18 10 30 16 SSW 1025,8 32 13 0,0

tt = Température de l'air
td = dewpoint
tt 5cm = Température de l'air 5cm
tt -20cm = Température de l'air -20cm
tt -100cm = Température de l'air -100cm
ff = Vitesse du vent
fx = gusts
dd = Direction du vent
ppp = reduced air pressure
vv = visibility
sd = Ensoleillement
rr = Quantités de précipitations

stations d'obs. à proximité